TimeEST,TemperatureF,Dew PointF,Humidity,Sea Level PressureIn,VisibilityMPH,Wind Direction,Wind SpeedMPH,Gust SpeedMPH,PrecipitationIn,Events,Conditions,WindDirDegrees,DateUTC
12:45 AM,48.2,48.2,100,30.19,3.0,Calm,Calm,-,N/A,,Overcast,0,2013-11-16 05:45:00
12:53 AM,48.9,48.9,100,30.18,3.0,Calm,Calm,-,N/A,,Overcast,0,2013-11-16 05:53:00
1:04 AM,48.2,48.2,100,30.19,2.5,Calm,Calm,-,N/A,,Overcast,0,2013-11-16 06:04:00
1:31 AM,48.2,48.2,100,30.18,2.5,Calm,Calm,-,N/A,,Overcast,0,2013-11-16 06:31:00
1:53 AM,48.9,48.9,100,30.17,2.0,Calm,Calm,-,N/A,,Overcast,0,2013-11-16 06:53:00
2:13 AM,48.2,48.2,100,30.17,1.5,Calm,Calm,-,N/A,,Overcast,0,2013-11-16 07:13:00
2:39 AM,48.2,48.2,100,30.17,2.5,East,17.3,25.3,N/A,,Overcast,100,2013-11-16 07:39:00
2:53 AM,48.9,48.9,100,30.17,3.0,Calm,Calm,-,N/A,,Overcast,0,2013-11-16 07:53:00
3:24 AM,50.0,48.2,94,30.17,3.0,NNE,3.5,-,N/A,,Overcast,20,2013-11-16 08:24:00
3:31 AM,48.2,48.2,100,30.16,1.8,North,3.5,-,N/A,,Overcast,10,2013-11-16 08:31:00
3:48 AM,48.2,48.2,100,30.16,2.0,Calm,Calm,-,N/A,,Overcast,0,2013-11-16 08:48:00
3:53 AM,48.9,48.9,100,30.15,2.0,Calm,Calm,-,N/A,,Overcast,0,2013-11-16 08:53:00
4:02 AM,48.2,48.2,100,30.16,2.5,Calm,Calm,-,N/A,,Overcast,0,2013-11-16 09:02:00
4:36 AM,48.2,48.2,100,30.15,2.5,Calm,Calm,-,N/A,,Overcast,0,2013-11-16 09:36:00
4:53 AM,48.9,48.9,100,30.15,3.0,Calm,Calm,-,N/A,,Overcast,0,2013-11-16 09:53:00
5:03 AM,48.2,48.2,100,30.16,2.0,Calm,Calm,-,N/A,,Overcast,0,2013-11-16 10:03:00
5:31 AM,50.0,48.2,94,30.17,3.0,Calm,Calm,-,N/A,,Overcast,0,2013-11-16 10:31:00
5:53 AM,50.0,48.9,96,30.16,3.0,Calm,Calm,-,N/A,,Overcast,0,2013-11-16 10:53:00
6:22 AM,50.0,48.2,94,30.18,2.5,Calm,Calm,-,N/A,,Overcast,0,2013-11-16 11:22:00
6:53 AM,50.0,50.0,100,30.17,2.5,Calm,Calm,-,N/A,,Overcast,0,2013-11-16 11:53:00
7:30 AM,50.0,50.0,100,30.19,3.0,Calm,Calm,-,N/A,,Overcast,0,2013-11-16 12:30:00
7:44 AM,50.0,48.2,94,30.20,2.5,Calm,Calm,-,N/A,,Overcast,0,2013-11-16 12:44:00
7:53 AM,50.0,50.0,100,30.19,2.0,Calm,Calm,-,N/A,,Overcast,0,2013-11-16 12:53:00
8:46 AM,51.8,51.8,100,30.20,3.0,Calm,Calm,-,N/A,,Overcast,0,2013-11-16 13:46:00
8:53 AM,52.0,51.1,97,30.19,3.0,Calm,Calm,-,N/A,,Overcast,0,2013-11-16 13:53:00
9:53 AM,54.0,52.0,93,30.20,4.0,Calm,Calm,-,N/A,,Overcast,0,2013-11-16 14:53:00
10:53 AM,55.9,54.0,93,30.20,5.0,East,3.5,-,N/A,,Overcast,100,2013-11-16 15:53:00
11:23 AM,57.2,55.4,94,30.20,7.0,Calm,Calm,-,N/A,,Overcast,0,2013-11-16 16:23:00
11:53 AM,59.0,55.0,87,30.18,8.0,SE,3.5,-,N/A,,Overcast,130,2013-11-16 16:53:00
12:53 PM,61.0,55.0,81,30.15,10.0,SE,4.6,-,N/A,,Overcast,140,2013-11-16 17:53:00
1:33 PM,62.6,55.4,77,30.15,9.0,SE,6.9,-,N/A,,Overcast,140,2013-11-16 18:33:00
1:53 PM,62.1,55.9,80,30.13,10.0,SE,5.8,-,N/A,,Overcast,130,2013-11-16 18:53:00
2:53 PM,63.0,55.9,78,30.12,10.0,SE,8.1,-,N/A,,Overcast,130,2013-11-16 19:53:00
3:17 PM,64.4,55.4,73,30.12,10.0,SE,8.1,-,N/A,,Mostly Cloudy,140,2013-11-16 20:17:00
3:31 PM,62.6,55.4,77,30.11,10.0,ESE,8.1,-,N/A,,Overcast,120,2013-11-16 20:31:00
3:53 PM,63.0,55.9,78,30.11,10.0,SSE,10.4,-,N/A,,Overcast,150,2013-11-16 20:53:00
4:53 PM,62.1,55.9,80,30.11,9.0,ESE,6.9,-,N/A,,Overcast,110,2013-11-16 21:53:00
5:41 PM,60.8,55.4,82,30.12,9.0,SE,5.8,-,N/A,,Overcast,130,2013-11-16 22:41:00
5:53 PM,61.0,55.9,83,30.11,9.0,SE,4.6,-,N/A,,Overcast,140,2013-11-16 22:53:00
6:53 PM,61.0,55.0,81,30.12,10.0,Variable,3.5,-,N/A,,Overcast,0,2013-11-16 23:53:00
7:53 PM,60.1,55.0,83,30.14,9.0,ESE,3.5,-,N/A,,Overcast,120,2013-11-17 00:53:00
8:13 PM,60.8,55.4,82,30.15,9.0,Variable,4.6,-,N/A,,Overcast,0,2013-11-17 01:13:00
8:53 PM,60.1,55.0,83,30.14,9.0,SE,4.6,-,N/A,,Overcast,130,2013-11-17 01:53:00
9:38 PM,60.8,55.4,82,30.16,9.0,ESE,6.9,-,N/A,,Overcast,110,2013-11-17 02:38:00
9:53 PM,60.1,55.0,83,30.14,9.0,SE,3.5,-,N/A,,Overcast,140,2013-11-17 02:53:00
10:53 PM,60.1,55.9,86,30.14,8.0,SE,4.6,-,N/A,,Overcast,140,2013-11-17 03:53:00
11:53 PM,60.1,55.9,86,30.12,9.0,SE,6.9,-,N/A,,Overcast,140,2013-11-17 04:53:00